Regional Weather Roundup
Issued by NWS Cleveland, OH

Home | Current Version | Previous Version | Graphics & Text | Print | Product List | Glossary On
Versions: 1 2 3 4 5 6 7 8 9 10 11 12 13 14 15 16 17 18 19 20 21 22 23 24 25 26 27 28 29 30 31 32 33 34 35 36 37 38 39 40 41 42 43 44 45 46 47 48 49 50
000
ASUS41 KCLE 281102
RWRCLE
OHIO REGIONAL WEATHER ROUNDUP
NATIONAL WEATHER SERVICE CLEVELAND, OH
600 AM EST WED JAN 28 2015

NOTE: "FAIR" INDICATES FEW OR NO CLOUDS BELOW 12,000 FEET WITH NO
SIGNIFICANT WEATHER AND/OR OBSTRUCTIONS TO VISIBILITY.

OHZ001>008-015>018-024>027-034-035-043-044-281200-
   NORTHWEST OHIO

CITY           SKY/WX    TMP DP  RH WIND       PRES   REMARKS
DEFIANCE       PTCLDY     3  -2  79 CALM      30.33R
FINDLAY        PTCLDY     4  -1  80 W5        30.32R HAZE    WCI  -5
TOLEDO EXPRESS CLEAR      7   5  91 CALM      30.33R
TOLEDO EXEC    PTCLDY    10   4  76 W3        30.34R
LIMA           PTCLDY     2  -5  72 W3        30.31R HAZE
$$

OHZ009>014-019>023-028>033-038-089-281200-
   NORTHEAST OHIO

CITY           SKY/WX    TMP DP  RH WIND       PRES   REMARKS
CLE-HOPKINS    PTCLDY     1  -3  83 SW5       30.30R WCI  -9
CLE-LAKEFRONT  PTCLDY    12   8  84 SW5       30.29R WCI   4
CUY CO. ARPT   NOT AVBL
LORAIN-ELYRIA  PTCLDY     2   0  91 SW5       30.29R WCI  -8
ASHTABULA      MOCLDY    -4  -9  79 CALM      30.25R
AKRON-CANTON   PTCLDY     5   1  83 W3        30.24R FOG
WOOSTER        PTCLDY   -11 -15  82 CALM      30.26R FOG
MANSFIELD      PTCLDY     1   1 100 CALM      30.25R
YOUNGSTOWN     PTCLDY     3   0  87 W5        30.22R WCI  -6
$$

OHZ042-051>053-060>062-070>072-077>081-281200-
  SOUTHWEST OHIO

CITY           SKY/WX    TMP DP  RH WIND       PRES   REMARKS
CINC-COVINGTON FAIR      17  12  80 CALM      30.31R HAZE
CINC-LUNKEN    CLEAR     12  10  92 CALM      30.36R FOG
HAMILTON       CLEAR     10   6  84 CALM      30.35R FOG
DAYTON         PTCLDY    10   6  84 NW3       30.32R FOG
WRIGHT-PAT AFB NOT AVBL
DAYTON GENERAL FAIR      13   9  84 NW3       30.31R FOG
WILMINGTON     PTCLDY     8   5  87 CALM      30.30R FOG
$$

OHZ036-037-039>041-045>050-054>059-063>069-073>076-082>088-281200-
  CENTRAL AND SOUTHEAST OHIO

CITY           SKY/WX    TMP DP  RH WIND       PRES   REMARKS
COLUMBUS       PTCLDY     6   2  83 CALM      30.31R FOG
OSU AIRPORT    PTCLDY     7   3  84 W5        30.31R FOG     WCI  -2
BOLTON FIELD   NOT AVBL
RICKENBACK AFB NOT AVBL
NEWARK         PTCLDY     1  -4  79 CALM      30.30R
MARION         PTCLDY    -1  -6  79 SW3       30.30R HAZE
LANCASTER      PTCLDY     1  -2  87 CALM      30.31R FOG
ZANESVILLE     PTCLDY     9   6  88 CALM      30.30R FOG
NEW PHILLY     CLOUDY    14  10  84 CALM      30.29R
$$



USA.gov is the U.S. government's official web portal to all federal, state and local government web resources and services.